Location: Unspecified
(49.4500°N, 0.0000°E)
Time: 22:48:17
(UTC+00:00)

ISS - Visible Passes

Search period start: 11 November 2019 00:00
Search period end: 21 November 2019 00:00
Orbit: 412 x 421 km, 51.6° (Epoch: 12 November)

Date Brightness Start Highest point End Pass type
(mag) Time Alt. Az. Time Alt. Az. Time Alt. Az.
11 Nov -2.1 04:47:39 27° SSE 04:47:39 27° SSE 04:49:34 10° SE visible
12 Nov -1.5 05:34:31 12° SW 05:34:31 12° SW 05:35:48 10° SSW visible
13 Nov -0.9 04:48:32 10° S 04:48:32 10° S 04:48:35 10° S visible
